TimeAKDT,TemperatureF,Dew PointF,Humidity,Sea Level PressureIn,VisibilityMPH,Wind Direction,Wind SpeedMPH,Gust SpeedMPH,PrecipitationIn,Events,Conditions,WindDirDegrees,DateUTC
12:53 AM,48.9,48.9,100,30.08,10.0,Calm,Calm,-,N/A,,Overcast,0,2013-07-05 08:53:00
1:53 AM,48.9,48.9,100,30.08,10.0,Calm,Calm,-,N/A,,Overcast,0,2013-07-05 09:53:00
2:53 AM,48.0,48.0,100,30.08,10.0,NE,3.5,-,N/A,,Overcast,40,2013-07-05 10:53:00
3:53 AM,48.0,46.9,96,30.09,10.0,Calm,Calm,-,N/A,,Overcast,0,2013-07-05 11:53:00
4:53 AM,48.0,46.9,96,30.07,10.0,Calm,Calm,-,N/A,,Overcast,0,2013-07-05 12:53:00
5:53 AM,48.9,46.9,93,30.06,10.0,Calm,Calm,-,N/A,,Overcast,0,2013-07-05 13:53:00
6:53 AM,48.0,48.0,100,30.06,10.0,NE,4.6,-,N/A,,Overcast,50,2013-07-05 14:53:00
7:53 AM,48.9,48.0,97,30.05,10.0,ENE,4.6,-,N/A,,Overcast,70,2013-07-05 15:53:00
8:53 AM,50.0,46.9,89,30.05,10.0,East,3.5,-,N/A,,Mostly Cloudy,90,2013-07-05 16:53:00
9:53 AM,52.0,46.9,83,30.04,10.0,ESE,10.4,-,N/A,,Overcast,110,2013-07-05 17:53:00
10:53 AM,53.1,46.9,80,30.04,10.0,East,11.5,-,N/A,,Overcast,100,2013-07-05 18:53:00
11:07 AM,53.6,46.4,77,30.03,10.0,ESE,10.4,-,N/A,,Overcast,120,2013-07-05 19:07:00
11:53 AM,53.1,46.9,80,30.03,10.0,East,12.7,18.4,N/A,,Overcast,100,2013-07-05 19:53:00
12:53 PM,52.0,46.9,83,30.02,10.0,ESE,9.2,-,N/A,,Overcast,120,2013-07-05 20:53:00
1:53 PM,53.1,46.9,80,30.02,10.0,ESE,11.5,-,N/A,,Overcast,120,2013-07-05 21:53:00
2:53 PM,53.1,46.9,80,30.01,10.0,SE,8.1,-,N/A,,Overcast,130,2013-07-05 22:53:00
3:53 PM,52.0,48.0,86,30.01,10.0,ESE,6.9,-,0.00,Rain,Light Rain,110,2013-07-05 23:53:00
4:53 PM,52.0,48.0,86,30.00,10.0,ESE,12.7,-,0.01,Rain,Light Rain,110,2013-07-06 00:53:00
5:53 PM,52.0,48.0,86,29.99,10.0,ESE,8.1,-,0.00,,Overcast,110,2013-07-06 01:53:00
6:53 PM,52.0,48.9,89,29.98,10.0,ESE,5.8,-,0.01,Rain,Light Rain,120,2013-07-06 02:53:00
7:53 PM,51.1,46.9,86,29.97,10.0,ESE,6.9,-,0.00,,Overcast,110,2013-07-06 03:53:00
8:53 PM,51.1,46.9,86,29.97,10.0,ESE,5.8,-,N/A,,Overcast,120,2013-07-06 04:53:00
9:53 PM,51.1,46.9,86,29.97,10.0,ESE,6.9,-,N/A,,Overcast,120,2013-07-06 05:53:00
10:53 PM,51.1,46.0,83,29.97,10.0,ESE,9.2,-,N/A,,Overcast,120,2013-07-06 06:53:00
11:53 PM,51.1,46.0,83,29.98,10.0,ESE,11.5,-,N/A,,Overcast,110,2013-07-06 07:53:00